ファン・ビースブルック彗星

53P/Van Biesbroeck (2003)

English version
Home page
Updated on November 20, 2005

---------------------------------------------------------------------

・ プロフィール

・ 写真集

・ 軌道要素

Epoch 2003 Oct. 8.0 TT = JDT 2452920.5  
T 2003 Oct. 9.43471 TT                                  Muraoka 
q   2.4153778            (2000.0)            P               Q
n   0.07873210     Peri.  134.09609     +0.22911715     +0.97159205
a   5.3913990      Node   149.00434     -0.92273425     +0.23618052
e   0.5519942      Incl.    6.61023     -0.30994651     +0.01508824
P  12.52
From 220 observations 1954-1993, mean residual 0".90.  Nongravitational
   parameters A1 = +0.57 +/- 0.05, A2 = -0.0205 +/- 0.0008.

・ 星図

・ 光度変化

        m1 = 8.0 + 5 logΔ + 12.5 log r  [ ,0]  (              〜2003年10月 9日)
        m1 = 9.0 + 5 logΔ + 10.0 log r  [0, ]  (2003年10月 9日〜              )

---------------------------------------------------------------------

軌道要素は村岡健治氏の計算によるものです。
星図は StellaNavigator Ver.2.0 for Windows (アストロアーツ 編著 / アスキー出版局刊) で作成したものです。
光度グラフはComet for Windowsで作成したものです。

---------------------------------------------------------------------

Copyright(C) Seiichi Yoshida (comet@aerith.net). All rights reserved.